Weather reports worldwide

Advertisment
Dansville, ny, United States of America (2072123): temperature & dewpoint: 21.09.2020 11:00:00 - 27.09.2020 11:00:00 (EDT)Dansville, ny, United States of America (2072123): wind speed: 21.09.2020 11:00:00 - 27.09.2020 11:00:00 (EDT)Dansville, ny, United States of America (2072123): wind direction: 21.09.2020 11:00:00 - 27.09.2020 11:00:00 (EDT)Dansville, ny, United States of America (2072123): reduced air pressure: 21.09.2020 11:00:00 - 27.09.2020 11:00:00 (EDT)Dansville, ny, United States of America (2072123): visibility: 21.09.2020 11:00:00 - 27.09.2020 11:00:00 (EDT)Dansville, ny, United States of America (2072123): precipitation: 21.09.2020 11:00:00 - 27.09.2020 11:00:00 (EDT)
Date & Time tt [°C] td [°C] ff [km/h] ff [kn] dd ppp [hPa] vv [km] rr [mm]
27.09.2020 11:00:00 25,0 15,6 15 8 S 1012,7 16 -
27.09.2020 10:00:00 21,1 15,0 15 8 ESE 1013,3 16 -
27.09.2020 09:00:00 18,9 14,4 21 11 ESE 1013,6 16 -
27.09.2020 08:00:00 13,9 12,2 8 4 ESE 1014,1 16 -
27.09.2020 07:00:00 15,0 12,8 11 6 S 1013,8 16 -
27.09.2020 06:00:00 16,1 13,9 15 8 SSE 1013,6 16 -
27.09.2020 05:00:00 16,1 13,9 11 6 S 1013,5 16 -
27.09.2020 04:00:00 16,7 13,9 11 6 SSE 1013,7 16 -
27.09.2020 03:00:00 16,1 13,9 5 3 S 1013,9 16 -
27.09.2020 02:00:00 16,1 13,3 5 3 SSE 1014,1 16 -
27.09.2020 01:00:00 16,7 13,9 5 3 S 1014,1 16 -
27.09.2020 00:00:00 16,1 13,3 9 5 SSE 1014,9 16 -
26.09.2020 23:00:00 17,2 13,9 11 6 S 1015,0 16 -
26.09.2020 22:00:00 18,3 13,9 0 0 N 1014,8 16 -
26.09.2020 21:00:00 18,9 14,4 5 3 S 1014,7 16 -
26.09.2020 20:00:00 20,6 14,4 9 5 SSE 1014,3 16 -
26.09.2020 19:00:00 23,9 13,3 0 0 N 1014,3 16 -
26.09.2020 18:00:00 26,1 12,8 9 5 S 1014,0 16 -
26.09.2020 17:00:00 27,2 12,2 11 6 SSW 1013,6 16 -
26.09.2020 16:00:00 27,8 12,2 9 5 - 1013,9 16 -
26.09.2020 15:00:00 28,9 12,2 9 5 - 1013,8 16 -
26.09.2020 14:00:00 27,8 11,7 11 6 SW 1014,3 16 -
26.09.2020 13:00:00 27,2 12,2 18 10 SSW 1014,8 16 -
26.09.2020 12:00:00 25,0 13,3 11 6 - 1015,7 16 -
26.09.2020 11:00:00 22,2 13,3 9 5 - 1017,0 16 -
26.09.2020 10:00:00 18,9 12,2 8 4 - 1018,1 16 -
26.09.2020 09:00:00 14,4 11,7 13 7 SE 1018,5 16 -
26.09.2020 08:00:00 12,2 10,0 5 3 ENE 1018,8 16 -
26.09.2020 07:00:00 12,2 10,0 15 8 SSE 1018,2 16 -
26.09.2020 06:00:00 11,7 10,0 13 7 SE 1018,2 16 -
26.09.2020 05:00:00 11,7 10,0 11 6 SE 1018,2 16 -
26.09.2020 04:00:00 12,8 10,6 15 8 SE 1018,0 16 -
26.09.2020 03:00:00 13,9 11,1 9 5 ESE 1017,6 16 -
26.09.2020 02:00:00 13,3 10,6 11 6 SSE 1017,7 16 -
26.09.2020 01:00:00 15,0 11,1 13 7 SSE 1017,8 16 -
26.09.2020 00:00:00 15,6 11,1 9 5 SSE 1018,2 16 -
25.09.2020 23:00:00 16,7 11,7 15 8 ESE 1018,1 16 -
25.09.2020 22:00:00 16,7 12,2 5 3 S 1017,8 16 -
25.09.2020 21:00:00 17,2 12,8 5 3 SSE 1017,6 16 -
25.09.2020 20:00:00 19,4 12,8 5 3 S 1017,3 16 -
25.09.2020 19:00:00 22,2 12,2 0 0 N 1016,8 16 -
25.09.2020 18:00:00 27,2 10,6 8 4 NNW 1016,8 16 -
25.09.2020 17:00:00 28,3 9,4 9 5 NW 1016,8 16 -
25.09.2020 16:00:00 28,3 8,3 8 4 - 1016,9 16 -
25.09.2020 15:00:00 28,9 8,9 9 5 - 1017,4 16 -
25.09.2020 14:00:00 27,2 9,4 5 3 - 1018,1 16 -
25.09.2020 13:00:00 26,1 10,6 5 3 - 1018,8 16 -
25.09.2020 12:00:00 25,0 11,1 11 6 S 1019,3 16 -
25.09.2020 11:00:00 22,2 13,9 13 7 ESE 1019,8 16 -
25.09.2020 10:00:00 18,9 12,8 13 7 ESE 1020,2 16 -
25.09.2020 09:00:00 15,0 11,7 18 10 ESE 1020,4 16 -
25.09.2020 08:00:00 12,8 11,1 16 9 SE 1019,8 16 -
25.09.2020 07:00:00 12,2 10,6 16 9 SE 1019,2 16 -
25.09.2020 06:00:00 12,8 11,1 16 9 SE 1018,2 16 -
25.09.2020 05:00:00 13,9 11,7 16 9 SE 1017,8 16 -
25.09.2020 04:00:00 13,9 11,7 13 7 SE 1017,6 16 -
25.09.2020 03:00:00 13,3 11,7 11 6 ESE 1017,8 16 -
25.09.2020 02:00:00 13,9 11,7 13 7 SE 1017,6 16 -
25.09.2020 01:00:00 14,4 12,2 9 5 SE 1017,5 16 -
25.09.2020 00:00:00 15,6 12,8 9 5 SSE 1017,4 16 -
24.09.2020 23:00:00 15,6 12,8 5 3 S 1017,2 16 -
24.09.2020 22:00:00 16,7 13,3 5 3 SSE 1017,0 16 -
24.09.2020 21:00:00 17,8 13,9 0 0 N 1016,5 16 -
24.09.2020 20:00:00 20,0 13,9 0 0 N 1015,8 16 -
24.09.2020 19:00:00 23,9 13,3 0 0 N 1015,3 16 -
24.09.2020 18:00:00 25,6 12,8 8 4 W 1014,5 16 -
24.09.2020 17:00:00 26,7 11,7 9 5 SW 1014,2 16 -
24.09.2020 16:00:00 26,7 11,7 11 6 W 1014,4 16 -
24.09.2020 15:00:00 27,2 11,7 - - - 1014,2 16 -
24.09.2020 14:00:00 26,7 11,7 11 6 - 1014,9 16 -
24.09.2020 13:00:00 26,7 12,2 11 6 WNW 1015,3 16 -
24.09.2020 12:00:00 25,0 14,4 11 6 ESE 1015,4 16 -
24.09.2020 11:00:00 22,2 14,4 11 6 SE 1016,0 16 -
24.09.2020 10:00:00 17,8 12,8 13 7 SSE 1016,3 16 -
24.09.2020 09:00:00 14,4 11,7 13 7 ESE 1016,2 16 -
24.09.2020 08:00:00 13,3 11,1 9 5 SE 1016,1 16 -
24.09.2020 07:00:00 12,8 10,6 9 5 SSE 1015,7 16 -
24.09.2020 06:00:00 12,8 10,6 8 4 SSE 1015,4 16 -
24.09.2020 05:00:00 12,2 10,0 5 3 S 1015,5 16 -
24.09.2020 04:00:00 12,2 10,0 5 3 S 1015,3 16 -
24.09.2020 03:00:00 13,9 11,1 13 7 SE 1015,4 16 -
24.09.2020 02:00:00 12,2 10,6 5 3 SE 1015,5 16 -
24.09.2020 01:00:00 14,4 11,1 8 4 S 1015,4 16 -
24.09.2020 00:00:00 14,4 11,1 5 3 SE 1015,6 16 -
23.09.2020 23:00:00 15,0 10,6 9 5 SSE 1015,3 16 -
23.09.2020 22:00:00 16,1 10,6 9 5 S 1015,5 16 -
23.09.2020 21:00:00 16,7 11,1 0 0 N 1015,6 16 -
23.09.2020 20:00:00 18,9 11,1 0 0 N 1015,1 16 -
23.09.2020 19:00:00 22,2 11,1 5 3 WNW 1014,4 16 0,0
23.09.2020 18:00:00 25,0 10,0 13 7 NW 1013,9 16 0,0
23.09.2020 17:00:00 26,1 6,7 15 8 WNW 1013,5 16 0,0
23.09.2020 16:00:00 26,7 8,3 22 12 NW 1013,4 16 0,0
23.09.2020 15:00:00 25,6 7,2 16 9 WNW 1013,8 16 0,0
23.09.2020 14:00:00 26,1 8,3 22 12 NW 1014,4 16 0,0
23.09.2020 13:00:00 25,0 7,2 28 15 NNW 1015,0 16 0,0
23.09.2020 12:00:00 24,4 9,4 18 10 NW 1015,2 16 -
23.09.2020 11:00:00 22,2 12,8 22 12 NW 1015,6 16 -
23.09.2020 10:00:00 20,0 12,2 8 4 - 1015,7 16 -
23.09.2020 09:00:00 16,7 11,7 5 3 SE 1015,6 16 -
23.09.2020 08:00:00 12,2 10,0 0 0 N 1015,9 16 -
23.09.2020 07:00:00 12,2 9,4 5 3 S 1015,8 16 -
23.09.2020 06:00:00 12,2 9,4 9 5 SSE 1015,6 16 -
23.09.2020 05:00:00 13,9 9,4 0 0 N 1015,5 16 -
23.09.2020 04:00:00 13,3 9,4 9 5 - 1015,6 16 -
23.09.2020 03:00:00 12,2 8,9 11 6 SSE 1016,1 16 -
23.09.2020 02:00:00 11,1 8,3 11 6 SSE 1016,7 16 -
23.09.2020 01:00:00 11,1 7,8 9 5 SE 1017,4 16 -
23.09.2020 00:00:00 11,1 7,2 9 5 SE 1017,8 16 -
22.09.2020 23:00:00 11,1 7,2 9 5 SSE 1017,9 16 -
22.09.2020 22:00:00 10,6 7,8 8 4 SE 1018,6 16 -
22.09.2020 21:00:00 11,7 7,8 8 4 SSE 1018,8 16 -
22.09.2020 20:00:00 14,4 7,2 0 0 N 1018,7 16 -
22.09.2020 19:00:00 17,8 7,8 5 3 NNW 1018,6 16 -
22.09.2020 18:00:00 20,0 6,1 11 6 NNW 1018,7 16 -
22.09.2020 17:00:00 21,1 5,0 18 10 NNW 1019,0 16 -
22.09.2020 16:00:00 21,7 4,4 18 10 NNW 1019,7 16 -
22.09.2020 15:00:00 21,1 4,4 13 7 NNW 1021,0 16 -
22.09.2020 14:00:00 21,1 2,2 21 11 NW 1022,2 16 -
22.09.2020 13:00:00 20,6 2,2 16 9 NW 1023,2 16 -
22.09.2020 12:00:00 18,3 3,9 8 4 - 1024,5 16 -
22.09.2020 11:00:00 15,6 3,3 8 4 NW 1025,4 16 -
22.09.2020 10:00:00 11,1 3,3 0 0 N 1026,1 16 -
22.09.2020 09:00:00 7,2 2,2 9 5 SSE 1026,8 16 -
22.09.2020 08:00:00 5,0 1,1 11 6 SSE 1027,0 16 -
22.09.2020 07:00:00 3,3 0,6 8 4 - 1027,4 16 -
22.09.2020 06:00:00 3,9 0,6 11 6 SE 1027,7 16 -
22.09.2020 05:00:00 3,9 0,6 11 6 SSE 1028,3 16 -
22.09.2020 04:00:00 4,4 1,1 13 7 SE 1028,3 16 -
22.09.2020 03:00:00 5,0 1,1 13 7 SSE 1028,8 16 -
22.09.2020 02:00:00 5,0 1,7 8 4 S 1029,3 16 -
22.09.2020 01:00:00 5,6 1,7 9 5 SE 1029,5 16 -
22.09.2020 00:00:00 6,1 2,2 8 4 S 1030,2 16 -
21.09.2020 23:00:00 7,2 2,8 8 4 S 1030,5 16 -
21.09.2020 22:00:00 7,8 3,3 8 4 SSE 1030,8 16 -
21.09.2020 21:00:00 10,0 3,3 0 0 N 1031,0 16 -
21.09.2020 20:00:00 12,2 3,3 0 0 N 1031,1 16 -
21.09.2020 19:00:00 16,1 2,2 5 3 - 1031,0 16 -
21.09.2020 18:00:00 20,6 -2,2 0 0 N 1030,9 16 -
21.09.2020 17:00:00 20,6 -2,8 0 0 N 1031,6 16 -
21.09.2020 16:00:00 20,6 -2,2 0 0 N 1032,2 16 -
21.09.2020 15:00:00 20,0 -2,2 5 3 - 1033,3 16 -
21.09.2020 14:00:00 20,0 -1,1 13 7 SSE 1034,6 16 -
21.09.2020 13:00:00 18,3 -1,7 9 5 - 1035,6 16 -
21.09.2020 12:00:00 16,7 -2,2 13 7 SSW 1036,5 16 -
21.09.2020 11:00:00 15,6 1,1 5 3 - 1037,1 16 -

tt = temperature
td = dewpoint
ff = wind speed
dd = wind direction
ppp = reduced air pressure
vv = visibility
rr = precipitation

Next stations